This is the latest recevied weather packets stored in our database for station/object KN6WGU. If no packets are shown the sender has not sent any weather packets the latest 10 day(s).
| Time | Temp. | Humidity | Pressure | Rain* | Wind** | Luminosity | Snow |
|---|---|---|---|---|---|---|---|
| 1788013256 | 21.11° C | 61% | 1016.7 hPa | 0 mm | - | 42 W/m² | - |
| 1788012950 | 21.11° C | 63% | 1016.8 hPa | 0 mm | - | 41 W/m² | - |
| 1788012650 | 20.56° C | 63% | 1016.9 hPa | 0 mm | - | 216 W/m² | - |
| 1788012344 | 20.56° C | 63% | 1016.9 hPa | 0 mm | - | 56 W/m² | - |
| 1788012040 | 20° C | 65% | 1016.7 hPa | 0 mm | - | 53 W/m² | - |
| 1788011738 | 20° C | 66% | 1016.9 hPa | 0 mm | - | 149 W/m² | - |
| 1788011434 | 20° C | 64% | 1016.9 hPa | 0 mm | - | 68 W/m² | - |
| 1788011133 | 19.44° C | 67% | 1016.9 hPa | 0 mm | - | 43 W/m² | - |
| 1788010827 | 18.89° C | 67% | 1016.8 hPa | 0 mm | - | 35 W/m² | - |
| 1788010526 | 18.89° C | 67% | 1016.7 hPa | 0 mm | - | 34 W/m² | - |
| 1788010217 | 18.89° C | 68% | 1016.8 hPa | 0 mm | - | 34 W/m² | - |
| 1788009916 | 18.33° C | 69% | 1016.6 hPa | 0 mm | - | 34 W/m² | - |
| 1788009614 | 18.33° C | 69% | 1016.5 hPa | 0 mm | - | 33 W/m² | - |
| 1788009309 | 18.33° C | 69% | 1016.7 hPa | 0 mm | - | 32 W/m² | - |
| 1788009009 | 18.33° C | 69% | 1016.9 hPa | 0 mm | - | 32 W/m² | - |
| 1788008705 | 17.78° C | 70% | 1016.7 hPa | 0 mm | - | 31 W/m² | - |
| 1788008402 | 17.78° C | 70% | 1016.6 hPa | 0 mm | - | 31 W/m² | - |
| 1788008101 | 17.78° C | 70% | 1016.6 hPa | 0 mm | - | 30 W/m² | - |
| 1788007800 | 17.78° C | 72% | 1016.5 hPa | 0 mm | - | 30 W/m² | - |
| 1788007494 | 17.22° C | 72% | 1016.8 hPa | 0 mm | - | 29 W/m² | - |
| 1788007194 | 17.22° C | 73% | 1016.5 hPa | 0 mm | - | 29 W/m² | - |
| 1788006888 | 17.22° C | 72% | 1016.6 hPa | 0 mm | - | 29 W/m² | - |
| 1788006587 | 16.67° C | 73% | 1016.5 hPa | 0 mm | - | 29 W/m² | - |
| 1788006282 | 16.67° C | 73% | 1016.6 hPa | 0 mm | - | 28 W/m² | - |
| 1788005980 | 16.67° C | 74% | 1016.4 hPa | 0 mm | - | 26 W/m² | - |
* Rain latest hour (hover to see other rain measurements)
** Current wind speed in m/s (hover to see current wind gust speed)